Big Delta, AK

4:38 AM AKST on December 18, 2017 (GMT -0900)
Allen Army Air Field

Weather History for PABI - September, 2013

Change the Weather History Date:

Saturday, September 21, 2013

  Actual Average Record
Temperature  
Mean Temperature 27 °F -  
Max Temperature 37 °F 46 °F 64 °F (2000)
Min Temperature 17 °F 30 °F 17 °F (2013)
Degree Days  
Heating Degree Days 38    
Moisture  
Dew Point 19 °F    
Average Humidity 67    
Maximum Humidity 85    
Minimum Humidity 44    
Precipitation  
Precipitation 0.00 in - - ()
Sea Level Pressure  
Sea Level Pressure 29.20 in    
Wind  
Wind Speed 3 mph (SW)    
Max Wind Speed 7 mph    
Max Gust Speed -    
Visibility 10 miles    
Events      
Averages and records for this station are not official NWS values.
T = Trace of Precipitation, MM = Missing Value Source: NWS Daily Summary

Daily Weather History Graph

Daily Weather History Graph

Search for Another Location

Airport or City:

Trip Planner

Search our weather history database for the weather conditions in past years. The results will help you decide how hot, cold, wet, or windy it might be!

Date:

Astronomy

Sep. 21, 2013 Rise Set
Actual Time 7:24 AM AKDT 7:45 PM AKDT
Civil Twilight 6:36 AM AKDT 8:33 PM AKDT
Nautical Twilight 5:37 AM AKDT 9:31 PM AKDT
Astronomical Twilight 4:30 AM AKDT 10:37 PM AKDT
Moon 7:49 PM AKDT (9/21) 10:59 AM AKDT (9/21)
Length of Visible Light 13h 56m
Length of Day
12h 21m
Waning Gibbous, 93% of the Moon is Illuminated
Sep 21
Waning Gibbous
Sep 26
Last Quarter
Oct 4
New
Oct 11
First Quarter
Oct 18
Full

Hourly Weather History & Observations

Time (AKDT) Temp. Windchill Dew Point Humidity Pressure Visibility Wind Dir Wind Speed Gust Speed Precip Events Conditions
12:53 AM 27.0 °F 21.6 °F 19.0 °F 72% 29.23 in 10.0 mi ENE 4.6 mph - N/A   Clear
1:53 AM 25.0 °F 20.7 °F 19.0 °F 78% 29.21 in 10.0 mi SE 3.5 mph - N/A   Clear
2:53 AM 21.9 °F 17.2 °F 17.1 °F 82% 29.20 in 10.0 mi South 3.5 mph - N/A   Clear
3:53 AM 19.0 °F 13.9 °F 12.9 °F 77% 29.19 in 10.0 mi SSE 3.5 mph - N/A   Clear
4:53 AM 18.0 °F 11.1 °F 12.9 °F 81% 29.18 in 10.0 mi SSW 4.6 mph - N/A   Clear
5:53 AM 18.0 °F 12.7 °F 12.9 °F 81% 29.17 in 10.0 mi SE 3.5 mph - N/A   Clear
6:53 AM 17.1 °F - 12.9 °F 84% 29.17 in 10.0 mi Calm Calm - N/A   Scattered Clouds
7:53 AM 21.0 °F - 17.1 °F 85% 29.16 in 10.0 mi Calm Calm - N/A   Scattered Clouds
8:53 AM 21.9 °F 17.2 °F 16.0 °F 78% 29.17 in 10.0 mi WSW 3.5 mph - N/A   Mostly Cloudy
9:53 AM 24.1 °F 18.2 °F 17.1 °F 75% 29.17 in 10.0 mi West 4.6 mph - N/A   Mostly Cloudy
10:53 AM 26.1 °F - 19.0 °F 75% 29.18 in 10.0 mi Calm Calm - N/A   Mostly Cloudy
11:53 AM 28.9 °F - 19.0 °F 67% 29.18 in 10.0 mi Calm Calm - N/A   Mostly Cloudy
12:53 PM 30.9 °F - 19.9 °F 64% 29.18 in 10.0 mi Calm Calm - N/A   Overcast
1:53 PM 33.1 °F 30.0 °F 21.0 °F 61% 29.19 in 10.0 mi West 3.5 mph - N/A   Overcast
2:53 PM 36.0 °F 31.1 °F 21.0 °F 55% 29.19 in 10.0 mi WSW 5.8 mph - N/A   Mostly Cloudy
3:53 PM 36.0 °F - 21.9 °F 57% 29.20 in 10.0 mi Calm Calm - N/A   Overcast
4:53 PM 37.0 °F 34.5 °F 21.9 °F 54% 29.21 in 10.0 mi WNW 3.5 mph - N/A   Overcast
5:53 PM 37.0 °F - 23.0 °F 57% 29.21 in 10.0 mi Calm Calm - N/A   Overcast
6:53 PM 36.0 °F 32.1 °F 23.0 °F 59% 29.23 in 10.0 mi West 4.6 mph - N/A   Overcast
7:53 PM 35.1 °F 30.1 °F 21.9 °F 59% 29.24 in 10.0 mi WSW 5.8 mph - N/A   Overcast
8:53 PM 34.0 °F 29.8 °F 21.9 °F 61% 29.25 in 10.0 mi West 4.6 mph - N/A   Overcast
9:29 PM 33.8 °F 27.7 °F 23.0 °F 65% 29.17 in 10.0 mi WSW 6.9 mph - N/A   Overcast
9:53 PM 34.0 °F 28.8 °F 23.0 °F 64% 29.24 in 10.0 mi SW 5.8 mph - N/A   Overcast
10:53 PM 34.0 °F 28.8 °F 23.0 °F 64% 29.25 in 10.0 mi WSW 5.8 mph - N/A   Overcast
11:53 PM 33.1 °F 28.7 °F 21.9 °F 64% 29.26 in 10.0 mi WNW 4.6 mph - N/A   Overcast